Overview Statistics Trail Chart Weather Telemetry Raw packets
 

This is the latest recevied weather packets stored in our database for station/object HOWARD. If no packets are shown the sender has not sent any weather packets the latest 10 day(s).

<< 44 45 46 47 48 49 50 >>
Time Temp. Humidity Pressure Rain* Wind** Luminosity Snow
1788024878 9.44° C 61% 1013.3 hPa 0 mm - - -
1788024351 10° C 57% 1013 hPa 0 mm - - -
1788024278 10° C 57% 1013 hPa 0 mm - - -
1788023679 10° C 57% 1012.9 hPa 0 mm - - -
1788023078 10° C 55% 1012.8 hPa 0 mm - - -
1788022635 10° C 54% 1012.9 hPa 0 mm - - -
1788022478 10° C 54% 1012.9 hPa 0 mm - - -
1788021930 9.44° C 53% 1012.8 hPa 0 mm - - -
1788021878 9.44° C 53% 1012.8 hPa 0 mm - - -
1788021278 10° C 54% 1013 hPa 0 mm - - -
1788020734 10° C 55% 1013.1 hPa 0 mm - - -
1788020678 10° C 55% 1013.1 hPa 0 mm - - -
1788020078 10° C 52% 1012.8 hPa 0 mm - - -
1788019478 9.44° C 53% 1012.6 hPa 0 mm - - -
1788018878 9.44° C 52% 1012.8 hPa 0 mm - - -
1788018278 9.44° C 54% 1012.8 hPa 0 mm - - -
1788017678 9.44° C 52% 1013.2 hPa 0 mm - - -
1788017078 9.44° C 53% 1013.4 hPa 0 mm - - -
1788016478 9.44° C 54% 1013.5 hPa 0 mm - - -
1788015878 10° C 54% 1013.4 hPa 0 mm - - -
1788015278 10° C 55% 1013.3 hPa 0 mm - - -
1788014679 9.44° C 56% 1013.3 hPa 0 mm - - -
1788014078 8.89° C 55% 1013.3 hPa 0 mm - - -
1788013478 9.44° C 55% 1013.3 hPa 0 mm - - -
1788012878 9.44° C 55% 1013.4 hPa 0 mm - - -

* Rain latest hour (hover to see other rain measurements)
** Current wind speed in m/s (hover to see current wind gust speed)